NIMBUS 2 DEB, 28617

Orbit data source: Space-Track

NIMBUS 2 DEB, 28617 is space debris in SSO originally from a launch on Sun, 15 May 1966 UTC launched from the Air Force Western Test Range (AFWTR). Debris objects in space refer to the collection of defunct objects orbiting the Earth. Examples of debris include non-operational satellites, rocket bodies, and fragments generated from explosions, collisions, or faulty payload assembly.

Loading next visibility...
Identifier
28617, 1966-040AG
Orbit
SSO
Country
Flag of USUS
Related business
Manufacturer
Unknown
Mission
Spacecraft
Bus & Motor
Unknown
Mass
Unknown
Launch date (UTC)
1966-05-15 (60 years ago)
Launch vehicle
Unknown
Launch site
Air Force Western Test Range (AFWTR)
Object type
Payload
Rocket body
Debris
Shape & HBR
Unknown shape, 0.1 m
Radar Cross Section
Small (<0.1 m²)

Expand to show TLE details & history
Last TLE update: 13 hours ago

TLE from 13 hours ago
0 NIMBUS 2 DEB
1 28617U 66040AG  25342.86414462  .00005903  00000-0  56810-2 0  9990
2 28617 100.4645 196.8543 0045423 180.0114 199.2943 13.80057272168787
Epoch: 2025-12-08T20:44Z
TLE epoch observation values (Epoch: 2025-12-08T20:44:22.095Z)
Latitude
18.80238°
Longitude
164.31845°
Altitude
997.481 km
Speed
7.339 km/s
True Right ascension
12h 53m 04s
True Declination
18° 42' 04"
Sunlit
Object was in daylight at epoch
Visualization orbit readout
Latitude
Unknown
Longitude
Unknown
Altitude
Unknown
Speed
Unknown
Apparent Right ascension
Unknown
Apparent Declination
Unknown
Sunlit
N/A
Visualization observer readout
Local Sidereal Time
08:01:23
Azimuth
Unknown
Elevation
Unknown
Doppler factor
Unknown
Orbital elements
Apogee altitude
994.323 km
Perigee altitude
927.65 km
Semi-major axis
7,339.123 km
Eccentricity
0.00454
Inclination
100.4645°
RAAN
196.8543°
Arg. of periapsis
180.0114°
True anomaly
199.12323°
Mean anomaly
199.2943°
Eccentric anomaly
199.20867°
Mean motion
3.45205 °/min
Orbital period
104.29 mins
BSTAR
0.005681
Loading maneuver chart data...
Computing Atmospheric mass density...
Loading historical data...
Loading historical data...
Loading historical data...
Loading historical data...
Loading historical data...
Loading historical data...
Loading historical data...

Documentation

Showing up to 5 results
|